Monticello, NY

12:10 PM EST on December 12, 2019 (GMT -0500)
Sullivan County International

Weather History for KMSV - August, 2019

Change the Weather History Date:

Sunday, August 25, 2019

  Actual Average Record
Temperature  
Mean Temperature 62 °F -  
Max Temperature 70 °F 74 °F 91 °F (2007)
Min Temperature 55 °F 55 °F 46 °F (2005)
Degree Days  
Heating Degree Days 2    
Growing Degree Days 12 (Base 50)    
Moisture  
Dew Point 53 °F    
Average Humidity 75    
Maximum Humidity 94    
Minimum Humidity 53    
Precipitation  
Precipitation 0.00 in - - ()
Sea Level Pressure  
Sea Level Pressure 30.31 in    
Wind  
Wind Speed 5 mph (ENE)    
Max Wind Speed 15 mph    
Max Gust Speed 23 mph    
Visibility 10 miles    
Events      
Averages and records for this station are not official NWS values.
T = Trace of Precipitation, MM = Missing Value Source: NWS Daily Summary

Daily Weather History Graph

Daily Weather History Graph

Search for Another Location

Airport or City:

Astronomy

Aug. 25, 2019 Rise Set
Actual Time 6:17 AM EDT 7:44 PM EDT
Civil Twilight 5:48 AM EDT 8:13 PM EDT
Nautical Twilight 5:13 AM EDT 8:48 PM EDT
Astronomical Twilight 4:36 AM EDT 9:25 PM EDT
Moon 12:48 AM EDT (8/25) 4:05 PM EDT (8/25)
Length of Visible Light 14h 24m
Length of Day
13h 26m
Waning Crescent, 29% of the Moon is Illuminated
Aug 25
Waning Crescent
Aug 30
New
Sep 5
First Quarter
Sep 14
Full
Sep 21
Last Quarter

Hourly Weather History & Observations

Time (EDT) Temp. Dew Point Humidity Pressure Visibility Wind Dir Wind Speed Gust Speed Precip Events Conditions
12:56 AM 57.0 °F 52.0 °F 83% 30.30 in 10.0 mi Calm Calm - N/A   Mostly Cloudy
1:56 AM 55.9 °F 52.0 °F 87% 30.29 in 10.0 mi Calm Calm - N/A   Mostly Cloudy
2:56 AM 57.0 °F 52.0 °F 83% 30.28 in 10.0 mi ENE 3.5 mph - N/A   Overcast
3:56 AM 57.9 °F 54.0 °F 87% 30.29 in 10.0 mi East 8.1 mph - N/A   Overcast
4:56 AM 57.9 °F 55.0 °F 90% 30.30 in 10.0 mi East 4.6 mph - N/A   Overcast
5:04 AM 57.2 °F 55.4 °F 94% 30.31 in 10.0 mi ENE 6.9 mph - N/A   Overcast
5:32 AM 57.2 °F 55.4 °F 94% 30.31 in 10.0 mi ENE 4.6 mph - N/A   Overcast
5:56 AM 57.9 °F 55.0 °F 90% 30.31 in 10.0 mi ENE 6.9 mph - 0.00 in   Overcast
6:56 AM 57.9 °F 55.0 °F 90% 30.32 in 10.0 mi East 4.6 mph - N/A   Overcast
7:56 AM 60.1 °F 55.0 °F 83% 30.34 in 10.0 mi ENE 5.8 mph - N/A   Scattered Clouds
8:29 AM 60.8 °F 53.6 °F 77% 30.35 in 10.0 mi ENE 8.1 mph - N/A   Mostly Cloudy
8:56 AM 61.0 °F 53.1 °F 75% 30.36 in 10.0 mi ENE 5.8 mph - N/A   Overcast
9:56 AM 64.0 °F 54.0 °F 70% 30.35 in 10.0 mi Variable 5.8 mph - N/A   Overcast
10:51 AM 66.2 °F 53.6 °F 64% 30.34 in 10.0 mi East 10.4 mph - N/A   Mostly Cloudy
10:56 AM 66.0 °F 53.1 °F 63% 30.34 in 10.0 mi NE 8.1 mph - N/A   Overcast
11:56 AM 66.9 °F 52.0 °F 59% 30.32 in 10.0 mi NE 9.2 mph 18.4 mph N/A   Overcast
12:56 PM 66.9 °F 52.0 °F 59% 30.31 in 10.0 mi East 15.0 mph 20.7 mph N/A   Mostly Cloudy
1:56 PM 66.9 °F 52.0 °F 59% 30.30 in 10.0 mi East 15.0 mph 19.6 mph N/A   Mostly Cloudy
2:56 PM 66.9 °F 51.1 °F 57% 30.29 in 10.0 mi East 11.5 mph 23.0 mph N/A   Mostly Cloudy
3:56 PM 68.0 °F 53.1 °F 59% 30.28 in 10.0 mi ENE 10.4 mph 19.6 mph N/A   Mostly Cloudy
4:56 PM 70.0 °F 52.0 °F 53% 30.27 in 10.0 mi East 9.2 mph 16.1 mph N/A   Scattered Clouds
5:56 PM 69.1 °F 52.0 °F 54% 30.27 in 10.0 mi East 5.8 mph - N/A   Scattered Clouds
6:56 PM 64.9 °F 53.1 °F 65% 30.27 in 10.0 mi East 4.6 mph - N/A   Clear
7:56 PM 63.0 °F 52.0 °F 67% 30.28 in 10.0 mi East 3.5 mph - N/A   Clear
8:56 PM 59.0 °F 53.1 °F 81% 30.29 in 10.0 mi NE 3.5 mph - N/A   Clear
9:56 PM 57.9 °F 52.0 °F 81% 30.29 in 10.0 mi NE 3.5 mph - N/A   Clear
10:56 PM 55.9 °F 52.0 °F 87% 30.29 in 10.0 mi ENE 3.5 mph - N/A   Clear
11:56 PM 55.0 °F 51.1 °F 86% 30.29 in 10.0 mi ENE 3.5 mph - N/A   Clear